,,PA_Meas_PMT16A,,PR_Meas_QMR101_102,,RH_Meas_QMH101,,SR_Meas_QMS101,,TA_Meas_QMH101,,GenWind,,GenWind,
time,status,PA,status,PR,status,RH,status,SR,status,TA,status,DirAvg,status,SpdAvg,
2015-05-19, 00:00:04,VALID,919.023,VALID,0,VALID,97.1757,VALID,0,VALID,21.7103,VALID,131,VALID,1.46719,
2015-05-19, 00:01:04,VALID,918.992,VALID,0,VALID,97.1757,VALID,0,VALID,21.7103,VALID,133,VALID,1.16758,
2015-05-19, 00:02:04,VALID,918.969,VALID,0,VALID,97.1833,VALID,0,VALID,21.6908,VALID,138,VALID,1.51055,
2015-05-19, 00:03:04,VALID,918.978,VALID,0,VALID,97.1681,VALID,0,VALID,21.712,VALID,129,VALID,1.15937,
2015-05-19, 06:53:04,VALID,918.124,VALID,0,VALID,98.6927,VALID,85.5232,VALID,20.3869,VALID,251,VALID,0,
2015-05-19, 06:54:04,VALID,918.105,VALID,0,VALID,98.6622,VALID,86.5976,VALID,20.4259,VALID,251,VALID,0,
2015-05-19, 06:55:04,VALID,918.142,VALID,0,VALID,98.6318,VALID,91.2175,VALID,20.4829,VALID,251,VALID,0,
2015-05-19, 06:56:04,VALID,918.145,VALID,0,VALID,98.6165,VALID,89.4985,VALID,20.543,VALID,230,VALID,0,
2015-05-19, 06:57:04,VALID,918.191,VALID,0,VALID,98.6089,VALID,96.697,VALID,20.5625,VALID,185,VALID,0.765234,
2015-05-19, 06:58:04,VALID,918.22,VALID,0,VALID,98.5936,VALID,100.243,VALID,20.5999,VALID,193,VALID,1.13281,
2015-05-19, 06:59:04,VALID,918.258,VALID,0,VALID,98.5631,VALID,102.499,VALID,20.678,VALID,175,VALID,1.08516,
2015-05-19, 07:00:04,VALID,918.284,VALID,0,VALID,98.525,VALID,105.507,VALID,20.7365,VALID,178,VALID,0.419922,
2015-05-19, 07:01:04,VALID,918.312,VALID,0,VALID,98.4335,VALID,107.763,VALID,20.8145,VALID,178,VALID,0,
2015-05-19, 07:02:04,VALID,918.307,VALID,0,VALID,98.3344,VALID,110.235,VALID,20.8925,VALID,179,VALID,0.510938,
2015-05-19, 07:03:04,VALID,918.311,VALID,0,VALID,98.2811,VALID,112.383,VALID,20.9316,VALID,172,VALID,0.798437,
2015-05-19, 07:04:04,VALID,918.321,VALID,0,VALID,98.1286,VALID,115.392,VALID,21.0486,VALID,171,VALID,0,
2015-05-19, 07:05:04,VALID,918.314,VALID,0,VALID,97.9075,VALID,117.541,VALID,21.1071,VALID,189,VALID,0,
2015-05-19, 07:06:04,VALID,918.358,VALID,0,VALID,97.5264,VALID,119.26,VALID,21.1852,VALID,191,VALID,0,
2015-05-19, 07:07:04,VALID,918.346,VALID,0,VALID,97.0994,VALID,121.409,VALID,21.2437,VALID,191,VALID,0,
2015-05-19, 07:08:04,VALID,918.378,VALID,0,VALID,96.6039,VALID,122.053,VALID,21.3217,VALID,191,VALID,0,
2015-05-19, 07:09:04,VALID,918.374,VALID,0,VALID,96.0398,VALID,122.805,VALID,21.4193,VALID,179,VALID,0,
2015-05-19, 07:10:04,VALID,918.37,VALID,0,VALID,95.9178,VALID,121.516,VALID,21.5559,VALID,176,VALID,0,
2015-05-19, 07:11:04,VALID,918.374,VALID,0,VALID,95.3613,VALID,127.962,VALID,21.6534,VALID,176,VALID,0,
2015-05-19, 07:12:04,VALID,918.395,VALID,0,VALID,94.3093,VALID,130.111,VALID,21.751,VALID,175,VALID,0,
2015-05-19, 07:13:04,VALID,918.406,VALID,0,VALID,92.2891,VALID,123.987,VALID,21.8469,VALID,176,VALID,0,
2015-05-19, 07:14:04,VALID,918.412,VALID,0,VALID,90.2917,VALID,134.409,VALID,21.9249,VALID,176,VALID,0,
2015-05-19, 07:15:04,VALID,918.472,VALID,0,VALID,89.2397,VALID,140.855,VALID,21.9851,VALID,175,VALID,0,
2015-05-19, 07:16:04,VALID,918.473,VALID,0,VALID,88.5917,VALID,126.458,VALID,21.9851,VALID,169,VALID,0,
2015-05-19, 07:17:04,VALID,918.485,VALID,0,VALID,88.4774,VALID,147.194,VALID,22.0242,VALID,169,VALID,0,
2015-05-19, 07:18:04,VALID,918.512,VALID,0,VALID,89.5751,VALID,149.021,VALID,22.1005,VALID,144,VALID,0,
2015-05-19, 07:19:04,VALID,918.514,VALID,0,VALID,89.9868,VALID,149.451,VALID,22.1998,VALID,97,VALID,0,
2015-05-19, 07:20:04,VALID,918.531,VALID,0,VALID,89.194,VALID,149.988,VALID,22.1201,VALID,91,VALID,0,
2015-05-19, 07:21:04,VALID,918.559,VALID,0,VALID,88.4774,VALID,154.393,VALID,22.0242,VALID,113,VALID,1.23633,
2015-05-19, 07:22:04,VALID,918.568,VALID,0,VALID,89.133,VALID,155.36,VALID,21.9054,VALID,92,VALID,1.0793,
2015-05-19, 07:23:04,VALID,918.557,VALID,0,VALID,91.2828,VALID,155.897,VALID,21.8469,VALID,68,VALID,1.25547,
2015-05-19, 07:24:04,VALID,918.555,VALID,0,VALID,90.429,VALID,159.013,VALID,21.7883,VALID,88,VALID,1.44453,
2015-05-19, 07:25:04,VALID,918.532,VALID,0,VALID,92.3653,VALID,160.947,VALID,21.7493,VALID,70,VALID,1.03945,
2015-05-19, 07:26:04,VALID,918.559,VALID,0,VALID,92.9599,VALID,165.459,VALID,21.7298,VALID,94,VALID,1.32227,
2015-05-19, 07:27:04,VALID,918.577,VALID,0,VALID,92.9371,VALID,170.617,VALID,21.7493,VALID,68,VALID,1.14453,
2015-05-19, 07:28:04,VALID,918.567,VALID,0,VALID,92.4873,VALID,173.84,VALID,21.7883,VALID,57,VALID,0,
2015-05-19, 07:29:04,VALID,918.559,VALID,0,VALID,93.181,VALID,178.137,VALID,21.9054,VALID,63,VALID,0,
2015-05-19, 07:30:04,VALID,918.591,VALID,0,VALID,91.8927,VALID,184.047,VALID,21.964,VALID,83,VALID,0,
2015-05-19, 07:31:04,VALID,918.568,VALID,0,VALID,88.5917,VALID,189.419,VALID,21.9054,VALID,89,VALID,0,
2015-05-19, 07:32:04,VALID,918.579,VALID,0,VALID,89.0491,VALID,195.865,VALID,21.9054,VALID,80,VALID,0,
2015-05-19, 07:33:04,VALID,918.594,VALID,0,VALID,90.3527,VALID,197.369,VALID,21.9428,VALID,64,VALID,0,
2015-05-19, 07:34:04,VALID,918.626,VALID,0,VALID,89.9258,VALID,211.767,VALID,21.9428,VALID,65,VALID,0,
2015-05-19, 07:35:04,VALID,918.631,VALID,0,VALID,90.8025,VALID,219.61,VALID,22.0403,VALID,72,VALID,0,
2015-05-19, 07:36:04,VALID,918.674,VALID,0,VALID,90.7339,VALID,227.345,VALID,22.1769,VALID,69,VALID,0,
2015-05-19, 07:37:04,VALID,918.732,VALID,0,VALID,89.0872,VALID,234.759,VALID,22.3135,VALID,51,VALID,0,
2015-05-19, 07:38:04,VALID,918.725,VALID,0,VALID,88.1496,VALID,243.462,VALID,22.4111,VALID,49,VALID,0,
2015-05-19, 07:39:04,VALID,918.777,VALID,0,VALID,87.3643,VALID,247.759,VALID,22.4891,VALID,93,VALID,0,
2015-05-19, 07:40:04,VALID,918.778,VALID,0,VALID,87.5168,VALID,252.487,VALID,22.5867,VALID,94,VALID,0,
2015-05-19, 07:41:04,VALID,918.805,VALID,0,VALID,87.0747,VALID,258.289,VALID,22.6257,VALID,115,VALID,0,
2015-05-19, 07:42:04,VALID,918.83,VALID,0,VALID,87.1051,VALID,256.999,VALID,22.6843,VALID,128,VALID,0,
2015-05-19, 07:43:04,VALID,918.824,VALID,0,VALID,86.1141,VALID,257.107,VALID,22.6647,VALID,130,VALID,0,
2015-05-19, 07:44:04,VALID,918.822,VALID,0,VALID,86.9832,VALID,259.793,VALID,22.7623,VALID,134,VALID,0,
2015-05-19, 07:45:04,VALID,918.821,VALID,0,VALID,86.5563,VALID,258.933,VALID,22.7996,VALID,132,VALID,0,
2015-05-19, 07:46:04,VALID,918.84,VALID,0,VALID,86.9603,VALID,261.834,VALID,22.9185,VALID,130,VALID,0,
2015-05-19, 07:47:04,VALID,918.863,VALID,0,VALID,85.2145,VALID,246.792,VALID,23.0941,VALID,96,VALID,0,
2015-05-19, 07:48:04,VALID,918.878,VALID,0,VALID,85.5881,VALID,264.52,VALID,23.1722,VALID,125,VALID,0,
2015-05-19, 07:49:04,VALID,918.877,VALID,0,VALID,82.9046,VALID,261.942,VALID,23.2502,VALID,83,VALID,0,
2015-05-19, 07:50:04,VALID,918.881,VALID,0,VALID,84.7114,VALID,256.032,VALID,23.2698,VALID,87,VALID,0,
2015-05-19, 07:51:04,VALID,918.845,VALID,0,VALID,83.6289,VALID,250.338,VALID,23.2502,VALID,102,VALID,0,
2015-05-19, 07:52:04,VALID,918.874,VALID,0,VALID,84.8029,VALID,248.834,VALID,23.2502,VALID,98,VALID,0,
2015-05-19, 07:53:04,VALID,918.854,VALID,0,VALID,84.1473,VALID,247.759,VALID,23.3478,VALID,77,VALID,0,
2015-05-19, 07:54:04,VALID,918.821,VALID,0,VALID,84.597,VALID,247.759,VALID,23.3283,VALID,100,VALID,0,
2015-05-19, 07:55:04,VALID,918.845,VALID,0,VALID,84.6275,VALID,248.511,VALID,23.3478,VALID,94,VALID,0,
2015-05-19, 07:56:04,VALID,918.821,VALID,0,VALID,83.0495,VALID,252.057,VALID,23.2698,VALID,95,VALID,0,
2015-05-19, 07:57:04,VALID,918.846,VALID,0,VALID,85.1536,VALID,256.355,VALID,23.1917,VALID,108,VALID,0,
2015-05-19, 07:58:04,VALID,918.833,VALID,0,VALID,85.1764,VALID,261.082,VALID,23.1917,VALID,105,VALID,0,
2015-05-19, 07:59:04,VALID,918.885,VALID,0,VALID,84.3683,VALID,263.231,VALID,23.1136,VALID,125,VALID,0,
2015-05-19, 08:00:04,VALID,918.894,VALID,0,VALID,85.2603,VALID,265.165,VALID,23.1331,VALID,128,VALID,0,
2015-05-19, 08:01:04,VALID,918.923,VALID,0,VALID,83.9719,VALID,267.528,VALID,23.0551,VALID,139,VALID,0,
2015-05-19, 08:02:04,VALID,918.929,VALID,0,VALID,84.4522,VALID,270.752,VALID,22.9965,VALID,157,VALID,0,
2015-05-19, 08:03:04,VALID,918.961,VALID,0,VALID,84.902,VALID,275.157,VALID,22.977,VALID,150,VALID,0,
2015-05-19, 08:04:04,VALID,918.94,VALID,0,VALID,85.0926,VALID,279.777,VALID,22.938,VALID,144,VALID,0,
2015-05-19, 08:05:04,VALID,918.934,VALID,0,VALID,85.1612,VALID,284.827,VALID,22.9753,VALID,127,VALID,0,
2015-05-19, 08:06:04,VALID,918.892,VALID,0,VALID,85.6262,VALID,289.124,VALID,23.0924,VALID,61,VALID,0,
2015-05-19, 08:07:04,VALID,918.928,VALID,0,VALID,83.2629,VALID,291.595,VALID,23.1527,VALID,41,VALID,0,
2015-05-19, 08:08:04,VALID,918.921,VALID,0,VALID,83.2172,VALID,293.744,VALID,23.2112,VALID,40,VALID,0,
2015-05-19, 08:09:04,VALID,918.93,VALID,0,VALID,84.1473,VALID,297.182,VALID,23.3088,VALID,40,VALID,0,
2015-05-19, 08:10:04,VALID,918.942,VALID,0,VALID,84.2769,VALID,301.48,VALID,23.465,VALID,40,VALID,0,
2015-05-19, 08:11:04,VALID,918.953,VALID,0,VALID,84.0024,VALID,306.422,VALID,23.6584,VALID,41,VALID,0,
2015-05-19, 08:12:04,VALID,918.969,VALID,0,VALID,83.08,VALID,308.786,VALID,23.8749,VALID,44,VALID,0,
2015-05-19, 08:13:04,VALID,918.989,VALID,0,VALID,81.2809,VALID,311.794,VALID,24.0506,VALID,45,VALID,0,
2015-05-19, 08:14:04,VALID,919.016,VALID,0,VALID,80.488,VALID,316.199,VALID,24.1677,VALID,45,VALID,0,
2015-05-19, 08:15:04,VALID,919.039,VALID,0,VALID,79.962,VALID,320.175,VALID,24.244,VALID,46,VALID,0,
2015-05-19, 08:16:04,VALID,919.073,VALID,0,VALID,79.5656,VALID,326.621,VALID,24.4197,VALID,40,VALID,0,
2015-05-19, 08:17:04,VALID,919.087,VALID,0,VALID,79.0777,VALID,334.679,VALID,24.3806,VALID,2,VALID,0,
2015-05-19, 08:18:04,VALID,919.141,VALID,0,VALID,78.8795,VALID,344.886,VALID,24.283,VALID,264,VALID,0,
2015-05-19, 08:19:04,VALID,919.189,VALID,0,VALID,80.4804,VALID,357.242,VALID,24.1073,VALID,262,VALID,0,
2015-05-19, 08:20:04,VALID,919.208,VALID,0,VALID,80.8844,VALID,369.92,VALID,23.9298,VALID,262,VALID,0,
2015-05-19, 08:21:04,VALID,919.232,VALID,0,VALID,81.4105,VALID,382.383,VALID,23.9707,VALID,262,VALID,0,
2015-05-19, 08:22:04,VALID,919.27,VALID,0,VALID,81.2427,VALID,395.706,VALID,24.1482,VALID,262,VALID,0,
2015-05-19, 08:23:04,VALID,919.262,VALID,0,VALID,78.9557,VALID,410.855,VALID,24.1854,VALID,257,VALID,0,
2015-05-19, 08:24:04,VALID,919.268,VALID,0,VALID,79.2912,VALID,423.855,VALID,24.1269,VALID,246,VALID,0,
2015-05-19, 08:25:04,VALID,919.276,VALID,0,VALID,79.2149,VALID,431.484,VALID,24.0292,VALID,250,VALID,0,
2015-05-19, 08:26:04,VALID,919.317,VALID,0,VALID,79.6266,VALID,426.649,VALID,23.9121,VALID,249,VALID,0,
2015-05-19, 08:27:04,VALID,919.318,VALID,0,VALID,80.4575,VALID,357.457,VALID,23.953,VALID,249,VALID,0,
2015-05-19, 08:28:04,VALID,919.29,VALID,0,VALID,80.7167,VALID,405.805,VALID,24.0292,VALID,259,VALID,0,
2015-05-19, 08:29:04,VALID,919.292,VALID,0,VALID,78.2544,VALID,358.746,VALID,24.1269,VALID,307,VALID,0,
2015-05-19, 08:30:04,VALID,919.3,VALID,0,VALID,79.0853,VALID,440.186,VALID,23.9902,VALID,297,VALID,0,
2015-05-19, 08:31:04,VALID,919.277,VALID,0,VALID,80.4118,VALID,431.269,VALID,23.795,VALID,293,VALID,0,
2015-05-19, 08:32:04,VALID,919.297,VALID,0,VALID,81.441,VALID,423.748,VALID,23.6779,VALID,294,VALID,0,
2015-05-19, 08:33:04,VALID,919.3,VALID,0,VALID,80.4957,VALID,417.839,VALID,23.5803,VALID,291,VALID,0,
2015-05-19, 08:34:04,VALID,919.331,VALID,0,VALID,79.375,VALID,416.12,VALID,23.4419,VALID,290,VALID,0,
2015-05-19, 08:35:04,VALID,919.339,VALID,0,VALID,81.7611,VALID,417.516,VALID,23.5217,VALID,318,VALID,0,
2015-05-19, 08:36:04,VALID,919.342,VALID,0,VALID,80.3203,VALID,423.533,VALID,23.6584,VALID,321,VALID,0,
2015-05-19, 08:37:04,VALID,919.385,VALID,0,VALID,79.5199,VALID,430.409,VALID,23.8713,VALID,22,VALID,0.0566406,
2015-05-19, 08:38:04,VALID,919.372,VALID,0,VALID,76.8974,VALID,371.854,VALID,24.1641,VALID,7,VALID,1.37266,
2015-05-19, 08:39:04,VALID,919.431,VALID,0,VALID,78.0333,VALID,269.355,VALID,24.283,VALID,2,VALID,0,
2015-05-19, 08:40:04,VALID,919.426,VALID,0,VALID,79.1082,VALID,249.049,VALID,24.3788,VALID,10,VALID,0,
2015-05-19, 08:41:04,VALID,919.417,VALID,0,VALID,75.6014,VALID,426.649,VALID,24.4783,VALID,351,VALID,0,
2015-05-19, 08:42:04,VALID,919.416,VALID,0,VALID,76.3561,VALID,421.599,VALID,24.5564,VALID,17,VALID,0.781641,
2015-05-19, 08:43:04,VALID,919.415,VALID,0,VALID,75.1516,VALID,422.351,VALID,24.4587,VALID,13,VALID,1.35273,
2015-05-19, 08:44:04,VALID,919.433,VALID,0,VALID,76.0207,VALID,420.74,VALID,24.3026,VALID,15,VALID,0.512891,
2015-05-19, 08:45:04,VALID,919.413,VALID,0,VALID,76.8517,VALID,421.492,VALID,24.283,VALID,19,VALID,0.901953,
2015-05-19, 08:46:04,VALID,919.412,VALID,0,VALID,77.4387,VALID,422.996,VALID,24.3221,VALID,37,VALID,0.00585938,
2015-05-19, 08:47:04,VALID,919.424,VALID,0,VALID,76.9431,VALID,423.533,VALID,24.4392,VALID,347,VALID,0.0222656,
2015-05-19, 08:48:04,VALID,919.457,VALID,0,VALID,77.8808,VALID,426.971,VALID,24.4978,VALID,358,VALID,0,
2015-05-19, 08:49:04,VALID,919.436,VALID,0,VALID,79.1311,VALID,427.616,VALID,24.5387,VALID,8,VALID,0,
2015-05-19, 08:50:04,VALID,919.482,VALID,0,VALID,78.5059,VALID,429.12,VALID,24.6345,VALID,28,VALID,0.0601562,
2015-05-19, 08:51:04,VALID,919.53,VALID,0,VALID,76.4629,VALID,430.409,VALID,24.693,VALID,284,VALID,0,
2015-05-19, 08:52:04,VALID,919.552,VALID,0,VALID,76.6611,VALID,434.277,VALID,24.6735,VALID,276,VALID,0,
2015-05-19, 08:53:04,VALID,919.583,VALID,0,VALID,78.7194,VALID,436.641,VALID,24.5759,VALID,286,VALID,0,
2015-05-19, 08:54:04,VALID,919.607,VALID,0,VALID,76.8212,VALID,439.005,VALID,24.4587,VALID,266,VALID,0,
2015-05-19, 08:55:04,VALID,919.6,VALID,0,VALID,78.6203,VALID,447.17,VALID,24.4978,VALID,266,VALID,0,
2015-05-19, 08:56:04,VALID,919.634,VALID,0,VALID,76.9508,VALID,457.807,VALID,24.6345,VALID,264,VALID,0,
2015-05-19, 08:57:04,VALID,919.657,VALID,0,VALID,76.1046,VALID,301.158,VALID,24.6345,VALID,264,VALID,0,
2015-05-19, 08:58:04,VALID,919.651,VALID,0,VALID,77.9418,VALID,220.039,VALID,24.535,VALID,264,VALID,0,
2015-05-19, 08:59:04,VALID,919.679,VALID,0,VALID,78.727,VALID,211.014,VALID,24.3983,VALID,264,VALID,0,
2015-05-19, 09:00:04,VALID,919.708,VALID,0,VALID,80.1526,VALID,257.322,VALID,24.3611,VALID,264,VALID,0,
2015-05-19, 09:01:04,VALID,919.698,VALID,0,VALID,79.4055,VALID,384.854,VALID,24.4197,VALID,264,VALID,0,
2015-05-19, 09:02:04,VALID,919.706,VALID,0,VALID,79.2149,VALID,361.969,VALID,24.4587,VALID,265,VALID,0,
2015-05-19, 09:03:04,VALID,919.691,VALID,0,VALID,79.1082,VALID,221.221,VALID,24.6326,VALID,266,VALID,0,
2015-05-19, 09:04:04,VALID,919.667,VALID,0,VALID,78.384,VALID,182.22,VALID,24.8688,VALID,325,VALID,0,
2015-05-19, 09:05:04,VALID,919.666,VALID,0,VALID,75.853,VALID,177.063,VALID,24.7126,VALID,289,VALID,0,
2015-05-19, 09:06:04,VALID,919.688,VALID,0,VALID,75.8377,VALID,305.992,VALID,24.4978,VALID,291,VALID,0,
2015-05-19, 09:07:04,VALID,919.657,VALID,0,VALID,76.8898,VALID,481.014,VALID,24.3983,VALID,289,VALID,0,
2015-05-19, 09:08:04,VALID,919.644,VALID,0,VALID,76.501,VALID,510.883,VALID,24.5564,VALID,289,VALID,0,
2015-05-19, 09:09:04,VALID,919.678,VALID,0,VALID,75.8911,VALID,506.692,VALID,24.7497,VALID,268,VALID,0,
2015-05-19, 09:10:04,VALID,919.673,VALID,0,VALID,76.0969,VALID,506.37,VALID,24.9059,VALID,263,VALID,0,
2015-05-19, 09:11:04,VALID,919.697,VALID,0,VALID,75.7615,VALID,507.874,VALID,25.0231,VALID,263,VALID,0,
2015-05-19, 09:12:04,VALID,919.7,VALID,0,VALID,75.7768,VALID,509.916,VALID,25.0445,VALID,263,VALID,0,
2015-05-19, 09:13:04,VALID,919.727,VALID,0,VALID,77.0727,VALID,511.527,VALID,25.1812,VALID,295,VALID,0,
2015-05-19, 09:14:04,VALID,919.719,VALID,0,VALID,77.4082,VALID,511.957,VALID,25.1988,VALID,312,VALID,0,
2015-05-19, 09:15:04,VALID,919.716,VALID,0,VALID,77.7283,VALID,515.073,VALID,25.1012,VALID,315,VALID,0,
2015-05-19, 09:16:04,VALID,919.706,VALID,0,VALID,76.8059,VALID,520.982,VALID,25.0621,VALID,292,VALID,0,
2015-05-19, 09:17:04,VALID,919.708,VALID,0,VALID,76.1732,VALID,526.247,VALID,25.0036,VALID,302,VALID,0,
2015-05-19, 09:18:04,VALID,919.666,VALID,0,VALID,77.5606,VALID,530.437,VALID,24.8864,VALID,300,VALID,0,
2015-05-19, 09:19:04,VALID,919.67,VALID,0,VALID,78.1248,VALID,532.263,VALID,25.0231,VALID,304,VALID,0,
2015-05-19, 09:20:04,VALID,919.656,VALID,0,VALID,77.797,VALID,534.197,VALID,25.1793,VALID,272,VALID,0,
2015-05-19, 09:21:04,VALID,919.665,VALID,0,VALID,76.7678,VALID,540.107,VALID,25.2769,VALID,297,VALID,0,
2015-05-19, 09:22:04,VALID,919.619,VALID,0,VALID,75.7386,VALID,538.925,VALID,25.2379,VALID,291,VALID,0,
2015-05-19, 09:23:04,VALID,919.646,VALID,0,VALID,77.4539,VALID,540.536,VALID,25.1012,VALID,300,VALID,0,
2015-05-19, 09:24:04,VALID,919.646,VALID,0,VALID,77.492,VALID,477.361,VALID,25.1598,VALID,9,VALID,0,
2015-05-19, 09:25:04,VALID,919.646,VALID,0,VALID,77.5683,VALID,440.186,VALID,25.316,VALID,8,VALID,0,
2015-05-19, 09:26:04,VALID,919.648,VALID,0,VALID,76.5696,VALID,453.617,VALID,25.316,VALID,301,VALID,0,
2015-05-19, 09:27:04,VALID,919.636,VALID,0,VALID,75.6014,VALID,558.694,VALID,25.2379,VALID,302,VALID,0,
2015-05-19, 09:28:04,VALID,919.623,VALID,0,VALID,76.4781,VALID,562.132,VALID,25.0621,VALID,295,VALID,0,
2015-05-19, 09:29:04,VALID,919.626,VALID,0,VALID,78.4145,VALID,572.984,VALID,25.0231,VALID,316,VALID,0,
2015-05-19, 09:30:04,VALID,919.62,VALID,0,VALID,75.609,VALID,585.769,VALID,25.1012,VALID,312,VALID,0,
2015-05-19, 09:31:04,VALID,919.63,VALID,0,VALID,75.853,VALID,600.811,VALID,25.1402,VALID,294,VALID,0.009375,
2015-05-19, 09:32:04,VALID,919.643,VALID,0,VALID,76.3485,VALID,512.387,VALID,25.2164,VALID,303,VALID,0,
2015-05-19, 09:33:04,VALID,919.64,VALID,0,VALID,74.8924,VALID,613.704,VALID,25.2164,VALID,290,VALID,0,
2015-05-19, 09:34:04,VALID,919.626,VALID,0,VALID,74.8467,VALID,628.746,VALID,25.1012,VALID,292,VALID,0,
2015-05-19, 09:35:04,VALID,919.624,VALID,0,VALID,76.5543,VALID,629.82,VALID,25.0407,VALID,295,VALID,0,
2015-05-19, 09:36:04,VALID,919.609,VALID,0,VALID,74.7171,VALID,647.226,VALID,25.1969,VALID,321,VALID,0.169531,
2015-05-19, 09:37:04,VALID,919.642,VALID,0,VALID,75.1745,VALID,670.218,VALID,25.275,VALID,322,VALID,0,
2015-05-19, 09:38:04,VALID,919.634,VALID,0,VALID,73.8328,VALID,695.144,VALID,25.4117,VALID,310,VALID,0,
2015-05-19, 09:39:04,VALID,919.629,VALID,0,VALID,75.8149,VALID,729.955,VALID,25.4703,VALID,294,VALID,0,
2015-05-19, 09:40:04,VALID,919.603,VALID,0,VALID,72.9866,VALID,770.461,VALID,25.6284,VALID,288,VALID,0,
2015-05-19, 09:41:04,VALID,919.583,VALID,0,VALID,71.9955,VALID,795.709,VALID,25.6851,VALID,295,VALID,1.075,
2015-05-19, 09:42:04,VALID,919.585,VALID,0,VALID,73.5278,VALID,828.049,VALID,25.5698,VALID,310,VALID,0,
2015-05-19, 09:43:04,VALID,919.585,VALID,0,VALID,73.7794,VALID,588.025,VALID,25.7046,VALID,336,VALID,0,
2015-05-19, 09:44:04,VALID,919.562,VALID,0,VALID,73.261,VALID,312.654,VALID,25.5503,VALID,293,VALID,0,
2015-05-19, 09:45:04,VALID,919.566,VALID,0,VALID,74.6332,VALID,284.827,VALID,25.4117,VALID,304,VALID,0.213281,
2015-05-19, 09:46:04,VALID,919.574,VALID,0,VALID,74.8772,VALID,282.785,VALID,25.275,VALID,287,VALID,0.239063,
2015-05-19, 09:47:04,VALID,919.563,VALID,0,VALID,76.2113,VALID,273.115,VALID,25.1383,VALID,300,VALID,0,
2015-05-19, 09:48:04,VALID,919.537,VALID,0,VALID,76.5086,VALID,303.951,VALID,25.0993,VALID,299,VALID,0,
2015-05-19, 09:49:04,VALID,919.564,VALID,0,VALID,76.1808,VALID,410.533,VALID,25.0212,VALID,256,VALID,0.516406,
2015-05-19, 09:50:04,VALID,919.569,VALID,0,VALID,75.975,VALID,449.964,VALID,24.8864,VALID,257,VALID,0,
2015-05-19, 09:51:04,VALID,919.533,VALID,0,VALID,77.0194,VALID,381.309,VALID,24.9255,VALID,14,VALID,0,
2015-05-19, 09:52:04,VALID,919.478,VALID,0,VALID,77.3777,VALID,222.296,VALID,25.0993,VALID,38,VALID,0,
2015-05-19, 09:53:04,VALID,919.458,VALID,0,VALID,76.562,VALID,212.626,VALID,25.0212,VALID,107,VALID,0,
2015-05-19, 09:54:04,VALID,919.408,VALID,0,VALID,77.2786,VALID,194.254,VALID,25.0212,VALID,108,VALID,0,
2015-05-19, 09:55:04,VALID,919.398,VALID,0,VALID,76.7221,VALID,135.268,VALID,25.0993,VALID,110,VALID,0,
2015-05-19, 09:56:04,VALID,919.359,VALID,0,VALID,76.8593,VALID,140.318,VALID,25.1207,VALID,151,VALID,0,
2015-05-19, 09:57:04,VALID,919.358,VALID,0,VALID,76.4476,VALID,217.139,VALID,25.0017,VALID,151,VALID,0,
2015-05-19, 09:58:04,VALID,919.341,VALID,0,VALID,76.8135,VALID,572.124,VALID,24.9236,VALID,151,VALID,0,
2015-05-19, 09:59:04,VALID,919.355,VALID,0,VALID,76.7373,VALID,310.505,VALID,24.9626,VALID,151,VALID,0,
2015-05-19, 10:00:04,VALID,919.307,VALID,0,VALID,76.9889,VALID,217.246,VALID,25.0798,VALID,151,VALID,0,
2015-05-19, 10:01:04,VALID,919.321,VALID,0,VALID,76.501,VALID,389.582,VALID,25.2164,VALID,151,VALID,0,
2015-05-19, 10:02:04,VALID,919.334,VALID,0,VALID,76.5848,VALID,501.32,VALID,25.2945,VALID,150,VALID,0,
2015-05-19, 10:03:04,VALID,919.327,VALID,0,VALID,75.9826,VALID,660.871,VALID,25.4527,VALID,151,VALID,0,
2015-05-19, 10:04:04,VALID,919.325,VALID,0,VALID,75.6243,VALID,752.948,VALID,25.5308,VALID,151,VALID,0,
2015-05-19, 10:05:04,VALID,919.332,VALID,0,VALID,75.5938,VALID,611.233,VALID,25.5698,VALID,151,VALID,0,
2015-05-19, 10:06:04,VALID,919.333,VALID,0,VALID,74.6104,VALID,755.096,VALID,25.648,VALID,151,VALID,0,
2015-05-19, 10:07:04,VALID,919.356,VALID,0,VALID,74.2444,VALID,736.617,VALID,25.8218,VALID,259,VALID,0,
2015-05-19, 10:08:04,VALID,919.391,VALID,0,VALID,74.9001,VALID,733.178,VALID,25.98,VALID,260,VALID,0,
2015-05-19, 10:09:04,VALID,919.39,VALID,0,VALID,73.1314,VALID,755.634,VALID,25.9604,VALID,282,VALID,0.219531,
2015-05-19, 10:10:04,VALID,919.426,VALID,0,VALID,74.6104,VALID,651.416,VALID,26.0581,VALID,319,VALID,0,
2015-05-19, 10:11:04,VALID,919.391,VALID,0,VALID,73.3601,VALID,703.74,VALID,26.2339,VALID,316,VALID,0,
2015-05-19, 10:12:04,VALID,919.39,VALID,0,VALID,73.5965,VALID,800.007,VALID,26.3296,VALID,326,VALID,0,
2015-05-19, 10:13:04,VALID,919.447,VALID,0,VALID,74.4808,VALID,842.876,VALID,26.5855,VALID,21,VALID,0,
2015-05-19, 10:14:04,VALID,919.402,VALID,0,VALID,71.4543,VALID,783.891,VALID,26.9372,VALID,15,VALID,0,
2015-05-19, 10:15:04,VALID,919.423,VALID,0,VALID,69.556,VALID,361.862,VALID,27.113,VALID,34,VALID,0,
2015-05-19, 10:16:04,VALID,919.42,VALID,0,VALID,70.7072,VALID,273.975,VALID,27.2477,VALID,260,VALID,0,
2015-05-19, 10:17:04,VALID,919.424,VALID,0,VALID,69.556,VALID,260.867,VALID,27.3084,VALID,245,VALID,0,
2015-05-19, 10:18:04,VALID,919.397,VALID,0,VALID,68.2296,VALID,308.464,VALID,27.1911,VALID,284,VALID,0,
2015-05-19, 10:19:04,VALID,919.409,VALID,0,VALID,69.6094,VALID,405.698,VALID,27.0348,VALID,287,VALID,0,
2015-05-19, 10:20:04,VALID,919.374,VALID,0,VALID,69.7314,VALID,863.827,VALID,26.8765,VALID,279,VALID,0,
2015-05-19, 10:21:04,VALID,919.358,VALID,0,VALID,70.6538,VALID,844.81,VALID,26.8395,VALID,81,VALID,0.178125,
2015-05-19, 10:22:04,VALID,919.356,VALID,0,VALID,72.7884,VALID,727.162,VALID,26.896,VALID,30,VALID,0,
2015-05-19, 10:23:04,VALID,919.338,VALID,0,VALID,70.4404,VALID,176.633,VALID,26.605,VALID,286,VALID,0.00234375,
2015-05-19, 10:24:04,VALID,919.341,VALID,0,VALID,72.6664,VALID,188.989,VALID,26.1733,VALID,348,VALID,0.235547,
2015-05-19, 10:25:04,VALID,919.291,VALID,0,VALID,73.0781,VALID,718.889,VALID,25.978,VALID,25,VALID,0,
2015-05-19, 10:26:04,VALID,919.277,VALID,0,VALID,74.1682,VALID,265.487,VALID,25.9975,VALID,24,VALID,0,
2015-05-19, 10:27:04,VALID,919.248,VALID,0,VALID,75.0144,VALID,209.94,VALID,26.0366,VALID,24,VALID,0.200391,
2015-05-19, 10:28:04,VALID,919.23,VALID,0,VALID,73.1391,VALID,225.949,VALID,26.0561,VALID,348,VALID,0,
2015-05-19, 10:29:04,VALID,919.199,VALID,0,VALID,74.3207,VALID,819.776,VALID,25.9975,VALID,343,VALID,0,
2015-05-19, 10:30:04,VALID,919.192,VALID,0,VALID,73.1009,VALID,787.544,VALID,26.2124,VALID,345,VALID,0.203125,
2015-05-19, 10:31:04,VALID,919.147,VALID,0,VALID,72.6207,VALID,770.783,VALID,26.3511,VALID,358,VALID,0,
2015-05-19, 10:32:04,VALID,919.138,VALID,0,VALID,71.0197,VALID,746.609,VALID,26.4683,VALID,338,VALID,0,
2015-05-19, 10:33:04,VALID,919.106,VALID,0,VALID,70.7834,VALID,734.038,VALID,26.6421,VALID,338,VALID,0,
2015-05-19, 10:34:04,VALID,919.041,VALID,0,VALID,72.331,VALID,737.369,VALID,26.8395,VALID,24,VALID,2.07813,